TimeEST,TemperatureF,Dew PointF,Humidity,Sea Level PressureIn,VisibilityMPH,Wind Direction,Wind SpeedMPH,Gust SpeedMPH,PrecipitationIn,Events,Conditions,WindDirDegrees,DateUTC
12:53 AM,54.0,53.1,97,30.02,8.0,South,15.0,-,N/A,,Mostly Cloudy,190,2012-12-05 05:53:00
1:53 AM,55.0,54.0,96,30.00,7.0,SSW,18.4,25.3,N/A,,Clear,200,2012-12-05 06:53:00
2:53 AM,55.9,55.0,97,29.96,8.0,South,18.4,27.6,N/A,,Clear,190,2012-12-05 07:53:00
3:53 AM,55.9,55.0,97,29.92,8.0,SSW,15.0,-,N/A,,Clear,200,2012-12-05 08:53:00
4:53 AM,55.9,54.0,93,29.90,8.0,SSW,15.0,-,N/A,,Clear,210,2012-12-05 09:53:00
5:53 AM,55.9,55.0,97,29.90,8.0,SW,11.5,19.6,N/A,,Overcast,230,2012-12-05 10:53:00
6:53 AM,57.0,55.0,93,29.90,10.0,WSW,11.5,23.0,0.02,Rain,Light Rain,240,2012-12-05 11:53:00
7:44 AM,55.4,53.6,94,29.91,9.0,West,9.2,19.6,0.00,Rain,Light Rain,260,2012-12-05 12:44:00
7:53 AM,55.0,53.1,93,29.92,8.0,West,9.2,-,0.00,,Overcast,270,2012-12-05 12:53:00
9:53 AM,54.0,52.0,93,29.93,10.0,WNW,8.1,-,0.00,,Overcast,290,2012-12-05 14:53:00
10:53 AM,53.1,48.9,86,29.91,10.0,WNW,9.2,-,0.01,,Overcast,300,2012-12-05 15:53:00
11:53 AM,55.9,45.0,67,29.90,10.0,NW,8.1,-,N/A,,Partly Cloudy,310,2012-12-05 16:53:00
12:53 PM,55.0,39.0,55,29.89,10.0,WNW,13.8,19.6,N/A,,Clear,300,2012-12-05 17:53:00
1:53 PM,55.0,37.0,51,29.90,10.0,WNW,10.4,17.3,N/A,,Clear,300,2012-12-05 18:53:00
2:53 PM,52.0,35.1,53,29.91,10.0,WNW,9.2,-,N/A,,Clear,300,2012-12-05 19:53:00
3:53 PM,51.1,35.1,54,29.93,10.0,WNW,9.2,18.4,N/A,,Clear,300,2012-12-05 20:53:00
4:53 PM,48.0,33.1,56,29.94,10.0,NW,9.2,-,N/A,,Clear,320,2012-12-05 21:53:00
5:53 PM,45.0,30.0,56,29.98,10.0,NW,19.6,32.2,N/A,,Clear,310,2012-12-05 22:53:00
6:53 PM,42.1,27.0,55,30.02,10.0,NW,21.9,29.9,N/A,,Overcast,310,2012-12-05 23:53:00
7:53 PM,41.0,25.0,53,30.04,10.0,NW,15.0,24.2,N/A,,Overcast,310,2012-12-06 00:53:00
8:53 PM,41.0,21.9,47,30.04,10.0,NNW,16.1,25.3,N/A,,Scattered Clouds,330,2012-12-06 01:53:00
9:53 PM,39.9,21.0,47,30.05,10.0,NNW,17.3,23.0,N/A,,Partly Cloudy,330,2012-12-06 02:53:00
10:53 PM,37.9,21.0,51,30.08,10.0,NW,15.0,21.9,N/A,,Mostly Cloudy,320,2012-12-06 03:53:00
11:53 PM,37.9,21.0,51,30.09,10.0,NNW,13.8,24.2,N/A,,Mostly Cloudy,330,2012-12-06 04:53:00